Twentynine Palms, CA

2:10 AM PST on December 08, 2019 (GMT -0800)
Twentynine Palms Expeditionary Air Field

Weather History for KNXP - July, 2019

Change the Weather History Date:

Monday, July 22, 2019

  Actual Average Record
Temperature  
Mean Temperature 90 °F -  
Max Temperature 104 °F 99 °F 111 °F (1996)
Min Temperature 78 °F 75 °F 68 °F (1997)
Cooling Degree Days 25    
Growing Degree Days 40 (Base 50)    
Moisture  
Dew Point 51 °F    
Average Humidity 27    
Maximum Humidity 46    
Minimum Humidity 14    
Precipitation  
Precipitation 0.03 in - - ()
Sea Level Pressure  
Sea Level Pressure 29.94 in    
Wind  
Wind Speed 7 mph (SW)    
Max Wind Speed 26 mph    
Max Gust Speed 33 mph    
Visibility 10 miles    
Events Rain , Thunderstorm    
Averages and records for this station are not official NWS values.
T = Trace of Precipitation, MM = Missing Value Source: NWS Daily Summary

Daily Weather History Graph

Daily Weather History Graph

Search for Another Location

Airport or City:

Astronomy

Jul. 22, 2019 Rise Set
Actual Time 5:48 AM PDT 7:53 PM PDT
Civil Twilight 5:20 AM PDT 8:21 PM PDT
Nautical Twilight 4:45 AM PDT 8:55 PM PDT
Astronomical Twilight 4:08 AM PDT 9:32 PM PDT
Moon 11:29 PM PDT (7/22) 10:57 AM PDT (7/22)
Length of Visible Light 15h 01m
Length of Day
14h 05m
Waning Gibbous, 71% of the Moon is Illuminated
Jul 22
Waning Gibbous
Jul 24
Last Quarter
Jul 31
New
Aug 7
First Quarter
Aug 15
Full

Hourly Weather History & Observations

Time (PDT) Temp. Heat Index Dew Point Humidity Pressure Visibility Wind Dir Wind Speed Gust Speed Precip Events Conditions
12:56 AM 88.0 °F - 46.9 °F 24% - 10.0 mi NW 5.8 mph - N/A   Clear
1:56 AM 89.1 °F - 48.9 °F 25% - 10.0 mi West 9.2 mph - N/A   Clear
2:56 AM 86.0 °F - 48.0 °F 27% - 10.0 mi NW 8.1 mph - N/A   Clear
3:56 AM 82.0 °F - 48.9 °F 31% - 10.0 mi West 5.8 mph - N/A   Clear
4:56 AM 80.1 °F - 48.0 °F 32% - 10.0 mi West 9.2 mph - N/A   Clear
5:56 AM 78.1 °F - 42.1 °F 28% - 10.0 mi WNW 5.8 mph - N/A   Clear
6:56 AM 79.0 °F - 42.1 °F 27% - 9.0 mi Calm Calm - N/A   Clear
7:56 AM 84.0 °F - 39.9 °F 21% 29.94 in 10.0 mi Calm Calm - N/A   Scattered Clouds
8:56 AM 89.1 °F - 41.0 °F 19% 29.94 in 10.0 mi NNE 5.8 mph - N/A   Scattered Clouds
9:56 AM 96.1 °F - 39.0 °F 14% 29.94 in 10.0 mi Calm Calm - N/A   Scattered Clouds
10:56 AM 99.0 °F - 43.0 °F 15% 29.95 in 10.0 mi ESE 6.9 mph - N/A   Scattered Clouds
11:56 AM 100.0 °F - 46.0 °F 16% 29.94 in 10.0 mi SE 4.6 mph - N/A   Scattered Clouds
12:56 PM 102.9 °F - 46.9 °F 15% 29.92 in 10.0 mi ESE 5.8 mph - N/A   Clear
1:56 PM 100.9 °F - 46.0 °F 15% 29.91 in 10.0 mi SE 4.6 mph - N/A   Clear
2:05 PM 100.9 °F - 46.9 °F 16% 30.03 in 10.0 mi Calm Calm - N/A Thunderstorm Thunderstorm
2:30 PM 98.1 °F 96.1 °F 54.0 °F 23% 30.03 in 10.0 mi SW 11.5 mph 17.3 mph 0.00 in Rain Light Rain
2:52 PM 98.6 °F - 48.2 °F 18% 30.02 in 10.0 mi SSW 13.8 mph - 0.00 in Rain , Thunderstorm Light Thunderstorms and Rain
2:56 PM 97.0 °F - 52.0 °F 22% 29.90 in 10.0 mi SSW 11.5 mph - 0.00 in Thunderstorm Thunderstorm
3:56 PM 84.0 °F 84.4 °F 61.0 °F 46% 29.94 in 10.0 mi SSE 26.5 mph 33.4 mph 0.01 in Rain , Thunderstorm Light Thunderstorms and Rain
4:56 PM 89.1 °F 88.0 °F 57.9 °F 35% 29.93 in 10.0 mi SW 17.3 mph 21.9 mph 0.02 in   Overcast
5:56 PM 88.0 °F 86.9 °F 57.9 °F 36% 29.92 in 10.0 mi SSW 11.5 mph - 0.00 in Rain Light Rain
6:56 PM 90.0 °F 88.8 °F 57.9 °F 34% 29.91 in 10.0 mi Variable 3.5 mph - 0.00 in   Mostly Cloudy
7:56 PM 91.0 °F 90.5 °F 60.1 °F 35% 29.89 in 10.0 mi WSW 13.8 mph - N/A   Mostly Cloudy
8:56 PM 88.0 °F 88.4 °F 62.1 °F 42% 29.89 in 10.0 mi SW 8.1 mph - N/A   Clear
9:56 PM 89.1 °F 89.0 °F 61.0 °F 39% 29.90 in 10.0 mi WNW 5.8 mph - N/A   Clear
10:56 PM 89.1 °F 88.8 °F 60.1 °F 38% 29.92 in 10.0 mi Calm Calm - N/A   Clear
11:56 PM 86.0 °F 86.1 °F 61.0 °F 43% 29.93 in 10.0 mi West 5.8 mph - N/A   Partly Cloudy